Home > Weather > Bad Oeynhausen > Past weeks

Flag for Germany Past Weather in Bad Oeynhausen, North Rhine-Westphalia, Germany — Yesterday and Last 2 Weeks

Now
61 °F

Broken clouds.


Feels Like: 61 °F
Forecast: 58 / 73 °F
Wind: 10 mph from Southwest

Location: Bueckeburg

Current Time: Jun 30, 2016 at 10:42:33 AM

Latest Report: Jun 30, 2016 at 9:20 AM


Visibility: N/A

Pressure: 29.89 "Hg

Humidity: 83%

Dew Point: 55 °F

Location of Bad OeynhausenLocation

Past Weather in Bad Oeynhausen — Graph

°F

Bad Oeynhausen Temperature Yesterday

Maximum temperature yesterday: 70 °F (at 5:20 PM)
Minimum temperature yesterday: 61 °F (at 4:20 AM)
Average temperature yesterday: 64 °F

High & Low Weather Summary for the Past Weeks

 TemperatureHumidityPressure
High90 °F (Jun 23, 4:20 PM)100% (Jun 17, 5:20 AM)30.24 "Hg (Jun 17, 5:20 AM)
Low50 °F (Jun 20, 1:20 AM)41% (Jun 23, 5:20 PM)29.50 "Hg (Jun 15, 9:20 AM)
Average64 °F78%29.95 "Hg
* Reported Jun 15 9:20 AM — Jun 30 9:20 AM, Bad Oeynhausen, Weather by CustomWeather, © 2016

Note: Actual official high and low records may vary slightly from our data, if they occured in-between our weather recording intervals... More about our weather records

Advertising

Bad Oeynhausen Weather History for the Previous 24 Hours

Scroll right to see more
 ConditionsComfort  
Time TempWeatherWind HumidityBarometerVisibility
9:20 AM
Thu, Jun 30
61 °FBroken clouds.10 mph83%29.89 "HgN/A
8:52 AM61 °FDrizzle. Partly sunny.12 mph83%29.86 "HgN/A
8:20 AM61 °FMostly cloudy.13 mph83%29.86 "Hg6 mi
7:20 AM61 °FLight rain. Mostly cloudy.9 mph83%29.86 "HgN/A
6:20 AM63 °FPartly sunny.9 mph68%29.86 "HgN/A
5:20 AM63 °FPassing clouds.12 mph64%29.83 "HgN/A
4:20 AM63 °FPassing clouds.8 mph64%29.86 "HgN/A
3:20 AM63 °FLight rain. Overcast.6 mph64%29.86 "HgN/A
2:20 AM63 °FOvercast.7 mph64%29.86 "HgN/A
1:20 AM61 °FOvercast.3 mph72%29.86 "HgN/A
12:20 AM63 °FOvercast.5 mph68%29.86 "HgN/A
11:20 PM
Wed, Jun 29
63 °FOvercast.6 mph68%29.89 "HgN/A
10:20 PM63 °FBroken clouds.5 mph68%29.89 "HgN/A
9:20 PM64 °FBroken clouds.6 mph64%29.89 "HgN/A
8:20 PM66 °FPartly sunny.9 mph52%29.89 "HgN/A
7:20 PM70 °FScattered clouds.15 mph50%29.86 "HgN/A
6:20 PM70 °FPassing clouds.14 mph46%29.86 "HgN/A
5:20 PM70 °FPassing clouds.15 mph50%29.86 "HgN/A
4:20 PM68 °FScattered clouds.13 mph53%29.89 "HgN/A
3:20 PM66 °FBroken clouds.16 mph64%29.89 "HgN/A
2:20 PM64 °FPartly sunny.23 mph64%29.89 "HgN/A
12:20 PM64 °FPartly sunny.21 mph68%29.86 "HgN/A
11:20 AM63 °FBroken clouds.23 mph68%29.86 "HgN/A
10:20 AM63 °FBroken clouds.17 mph68%29.83 "HgN/A
Weather by CustomWeather, © 2016

See weather overviewHow to use our weather pages